Regional Weather Roundup
Issued by NWS Spokane, WA

Home | Current Version | Previous Version | Text Only | Print | Product List | Glossary On
Versions: 1 2 3 4 5 6 7 8 9 10 11 12 13 14 15 16 17 18 19 20 21 22 23 24 25 26 27 28 29 30 31 32 33 34 35 36 37 38 39 40 41 42 43 44 45 46 47 48 49 50
912
NZUS01 KOTX 232125
RWROTX

Eastern Washington/Northern Idaho Roundup
National Weather Service, Spokane WA
100 PM PST THU FEB 23 2017

Note: "fair" indicated few or no clouds below 12,000 feet with no
significant weather and/or obstructions to visibility.

...Northeast Washington and Northern Idaho Panhandle...

CITY           SKY/WX    TMP DP  RH WIND       PRES   REMARKS
Spokane Intl   PTSUNNY   29  25  85 VRB3      30.06F
Spokane Downto CLOUDY    29  26  89 CALM      30.09F
Coeur d Alene  PTSUNNY   35  28  75 SW6       30.05F
Deer Park      FAIR      32  21  64 S6        30.06F WCI  26
Sandpoint      FAIR      36  21  55 CALM      30.04S
Bonners Ferry  FAIR      32  19  59 CALM      30.02F

...Southeast Washington and southern Idaho Panhandle...

CITY           SKY/WX    TMP DP  RH WIND       PRES   REMARKS
Walla Walla    FAIR      39  25  57 MISG      30.15F
Pullman/Moscow CLOUDY    30  26  85 NW7       30.07S WCI  23
Lewiston       FAIR      41  27  57 NW14G21   30.08F
Lowell           N/A     35  31  85 CALM      30.06F
Grangeville    CLOUDY    32  21  64 NW9       29.99S WCI  24

...Columbia Basin...

CITY           SKY/WX    TMP DP  RH WIND       PRES   REMARKS
Ephrata        FAIR      38  18  44 N10       30.13F
Moses Lake     FAIR      39  22  50 NW10      30.14F
Pasco          FAIR      45  22  40 N7        30.18F
Richland       FAIR      47  24  39 N5        30.17F
Hermiston      FAIR      44  25  47 CALM      30.17F
Pendleton      FAIR      39  25  57 CALM      30.13F

...East Slopes Cascades...

CITY           SKY/WX    TMP DP  RH WIND       PRES   REMARKS
The Dalles     FAIR      48  26  42 NW18      30.19F
Yakima         FAIR      45  20  36 VRB3      30.15F
Ellensburg     FAIR      35  22  58 SE5       30.12F
Stampede Pass  FLURRIES  26 N/A N/A VRB5      30.05F WCI  20
Wenatchee      FAIR      37  20  50 CALM      30.13F
Omak           FAIR      38  20  48 NW10      30.13F
Chelan           N/A     36  18  48 MISG        N/A
Sunnyside      FAIR      40  25  55 SE5       30.16F

...Southern British Columbia...

CITY           SKY/WX    TMP DP  RH WIND       PRES   REMARKS
Penticton      MOSUNNY   39  18  41 N7        30.13F
Castlegar      MOSUNNY   37  19  48 N5        30.07
Cranbrook      MOSUNNY   30  12  47 VRB2      29.97F
Osoyoos          N/A     41  21  45 S3          N/A
Creston          N/A     37  23  56 W5          N/A

...Western Montana...

CITY           SKY/WX    TMP DP  RH WIND       PRES   REMARKS
Kalispell      CLOUDY    37  22  54 NE3       29.94F
Libby            N/A     37  19  48 SW3       29.98F
Missoula       CLOUDY    36  22  56 N8        29.93S

...Neighboring Cities...

CITY           SKY/WX    TMP DP  RH WIND       PRES   REMARKS
Seattle        PTSUNNY   40  32  73 CALM      30.25F
Portland       PTSUNNY   41  33  73 NW5       30.27F
Boise          LGT SNOW  33  26  75 NW29      29.90S WCI  19
Great Falls    CLOUDY    26  21  81 NE9       29.97S WCI  17
Calgary        PTSUNNY   25  18  74 S12       29.96F WCI  14



USA.gov is the U.S. government's official web portal to all federal, state and local government web resources and services.